User: anonymous   Login
Location: Keeble Observatory
(37.7625°N, 77.4755°W)
Time: 11:58:22
(UTC-04:00)
Language:

Cosmos 1484 Rocket - Orbit

View from above orbital plane
View from above orbital plane
View from above satellite
View from above satellite

Ground track
Ground track

The orbit data is extracted from the following two-line orbital elements,

1 14208U 83075B   16206.52316311  .00000527  00000-0  35700-4 0  9998
2 14208  97.3535 224.4108 0039863 178.8938 181.2387 15.09997760798055
Epoch (UTC): 24 July 2016 12:33:21
Eccentricity: 0.0039863
inclination: 97.3535°
perigee height: 508 km
apogee height: 564 km
right ascension of ascending node: 224.4108°
argument of perigee: 178.8938°
revolutions per day: 15.09997760
mean anomaly at epoch: 181.2387°
orbit number at epoch: 79805

The dashed part of the orbit path shows where the satellite is in the earth's shadow,  

DLR